Regional Weather Roundup
Issued by NWS Glasgow, MT

Home | Current Version | Previous Version | Text Only | Print | Product List | Glossary On
Versions: 1 2 3 4 5 6 7 8 9 10 11 12 13 14 15 16 17 18 19 20 21 22 23 24 25 26 27
000
ASUS45 KGGW 251915
RWRGGW
HOURLY REGIONAL WEATHER ROUNDUP FOR NORTHEAST MONTANA
NATIONAL WEATHER SERVICE GLASGOW MONTANA
100 PM MDT MON JUL 25 2016

NOTE: "FAIR" INDICATES FEW OR NO CLOUDS BELOW 12,000 FEET WITH NO
SIGNIFICANT WEATHER AND/OR OBSTRUCTIONS TO VISISBILITY.

NORTHEAST MONTANA


CITY           SKY/WX    TMP DP  RH WIND       PRES   REMARKS
GLASGOW        SUNNY     90  47  22 VRB3      29.98F
PLENTYWOOD       N/A     87  46  24 N5          N/A
WOLF POINT     SUNNY     92  47  21 N14       29.97F
JORDAN           N/A     92  44  19 VRB6      29.99S
WINNETT          N/A     88  43  20 NE9         N/A
SIDNEY         SUNNY     88  58  36 E7        29.97F
GLENDIVE       SUNNY     92  50  23 NE9       29.98F
MALTA            N/A     90  48  23 SW1         N/A
OPHEIM           N/A     82  43  24 NW2       29.76S

FORT PECK REPORTS


CITY           SKY/WX    TMP DP  RH WIND       PRES   REMARKS
FORT PECK        N/A     91  50  24 E3          N/A
THE PINES        N/A     88  39  17 NE5         N/A

SOUTHEAST MONTANA


CITY           SKY/WX    TMP DP  RH WIND       PRES   REMARKS
BILLINGS       MOSUNNY   89  43  20 VRB6      30.04F
MILES CITY     SUNNY     94  41  16 N7        29.98F
BAKER          SUNNY     94  41  16 NE7       30.01F
LIVINGSTON     SUNNY     88  35  15 N5        30.09F

CENTRAL MONTANA


CITY           SKY/WX    TMP DP  RH WIND       PRES   REMARKS
HAVRE            N/A     86  52  30 MISG      30.02S
LEWISTOWN      SUNNY     82  50  32 NW9       30.12S
GREAT FALLS    SUNNY     84  44  24 MISG      30.09F
CUT BANK       SUNNY     78  52  40 N17       30.13F
HELENA         SUNNY     86  41  20 VRB5      30.07F
BUTTE          SUNNY     82  38  20 N7        30.17F
BOZEMAN        SUNNY     85  41  21 VRB5      30.10F

WESTERN MONTANA


CITY           SKY/WX    TMP DP  RH WIND       PRES   REMARKS
MISSOULA       SUNNY     83  47  28 CALM      30.08F
KALISPELL      NOT AVBL

NORTH DAKOTA


CITY           SKY/WX    TMP DP  RH WIND       PRES   REMARKS
WILLISTON      SUNNY     89  53  29 NE7       29.97F
DICKINSON      SUNNY     89  52  28 VRB3      29.98S
MINOT          SUNNY     88  62  41 E7        29.95S
BISMARCK       SUNNY     88  66  48 S10       29.96F

SOUTHERN SASKATCHEWAN


CITY           SKY/WX    TMP DP  RH WIND       PRES   REMARKS
REGINA         PTSUNNY   81  63  54 N5        29.99S
MOOSE JAW      MOSUNNY   79  64  61 NE7       30.01S
ESTEVAN        MOSUNNY   82  64  54 SE6       29.99S
SWIFT CURRENT  SUNNY     77  59  53 NE9       30.05S





USA.gov is the U.S. government's official web portal to all federal, state and local government web resources and services.